Overview Statistics Trail Chart Weather Telemetry Raw packets
 

This is the latest recevied weather packets stored in our database for station/object DL2AKT-20. If no packets are shown the sender has not sent any weather packets the latest 10 day(s).

<< 3 4 5 6 7 8 9 >>
Time Temp. Humidity Pressure Rain* Wind** Luminosity Snow
1777938476 19.44° C 45% 1015.3 hPa - - - -
1777937576 19.44° C 44% 1015.5 hPa - - - -
1777936676 20° C 43% 1015.5 hPa - - - -
1777935776 19.44° C 44% 1015.7 hPa - - - -
1777934875 19.44° C 45% 1015.8 hPa - - - -
1777933975 20° C 44% 1015.8 hPa - - - -
1777933080 20° C 44% 1016 hPa - - - -
1777932180 20.56° C 43% 1016.2 hPa - - - -
1777931280 20.56° C 43% 1016 hPa - - - -
1777930380 20.56° C 43% 1016 hPa - - - -
1777929480 21.11° C 43% 1016.2 hPa - - - -
1777928580 20.56° C 43% 1016.3 hPa - - - -
1777927680 21.11° C 43% 1016.3 hPa - - - -
1777926780 21.11° C 42% 1016.2 hPa - - - -
1777925880 21.67° C 41% 1016.2 hPa - - - -
1777924979 21.67° C 42% 1016.1 hPa - - - -
1777924079 21.67° C 41% 1016.1 hPa - - - -
1777923179 22.22° C 41% 1015.9 hPa - - - -
1777922279 22.78° C 41% 1015.9 hPa - - - -
1777921379 22.78° C 41% 1016 hPa - - - -
1777920478 22.78° C 42% 1016 hPa - - - -
1777919577 23.33° C 41% 1016.2 hPa - - - -
1777918683 23.89° C 41% 1015.9 hPa - - - -
1777917776 23.89° C 40% 1016 hPa - - - -
1777916876 24.44° C 37% 1015.9 hPa - - - -

* Rain since midnight (hover to see other rain measurements)
** Current wind speed in m/s (hover to see current wind gust speed)